COSMOS 1220 DEB

Satellite information

Favourite Embed

Satellite Type and Status

DEBRISIN ORBIT

Key statistics

Satellite COSMOS 1220 DEB at a glance.

Uptime

16478

Days in orbit

Revolutions

≈ 15.4

Per day

Orbit

LEO

Low Earth Orbit

Inclination

65.0

Latest

Satellite identification and parameters

Extended collection of information and parameters for COSMOS 1220 DEB.

Object identification

Identified? True

Debris? True

Object name: COSMOS 1220 DEB

International designator: 1980-089CJ

Object number (NORAD): 25795

Object ID (CCSDS): 25795

Country: COMMONWEALTH OF INDEPENDENT STATES (CIS)

Current information (Y/N): Y

RCS size: SMALL

Orbital parameters

Period: 93.678 minutes

Inclination: 64.9716 deg

SMA: 6832.611 km

Apoapsis: 494.798 km

Periapsis: 414.154 km

RAAN: 332.541 deg

Eccentricy: 0.00590139

Argument of periapsis: 302.1014 deg

Mean anomaly: 57.4402 deg

Mean motion: 15.37172799 rev/day

Mean motion (dot): 0.00014621 rev/day2

B* drag term: 0.00038250975 1/REarth

Two-line elements (TLE)

Creation date: Dec. 16, 2025, 2:19 a.m.

Reference frame: TEME

Reference center: EARTH

Epoch: Dec. 15, 2025, 10:33 p.m. UTC

TLE line 0: 0 COSMOS 1220 DEB

TLE line 1: 1 25795U 80089CJ 25349.93962257 .00014621 00000-0 38251-3 0 9995

TLE line 2: 2 25795 64.9716 332.5410 0059014 302.1014 57.4402 15.37172799543859

Live tracking on map

Real-time ground track for satellite COSMOS 1220 DEB.

In-orbit conjunctions

A list of the most updated potential collisions computed for object COSMOS 1220 DEB.

Target Orbit TCA Probability of collision Miss distance Type
CERISE SSO 2025-12-08 22:37:28 0.0002156748 294.0 (m) PAYLOAD

Associated space launch

Ocean surveillance satellite using passive ELINT devices

COSMOS 1220 DEB was lifted into orbit during the mission ‘Tsiklon-2 | US-P 9’, on board a Tsiklon-2 space rocket.

The launch took place on Nov. 4, 1980, 3:04 p.m. from 90.

For more information about the launch, click the button.

Launch to space Tsiklon-2 | US-P 9
Tsiklon-2 | US-P 9

Agency: N/A

Status: Launch Successful

Launch date: Nov. 4, 1980, 3:04 p.m. UTC

Rocket: Tsiklon-2

Launch pad: 90

Location: Baikonur Cosmodrome, Republic of Kazakhstan

...

Latest news about this satellite

There are no fresh news available about this satellite. Check back as we update our databases every day.


Newsletter sign-up

Weekly statistics, charts and insights to help you stay on top of the space industry.